GFSFLT2_700_temp_024.txt.gz
Temp
6 6 6 7 7 7 6 6 6 6 6 5 5 5 5 5 4 4 4 4 4 4 4 3 3 3 3 3 3 3 3 3
6 6 6 7 7 6 6 6 6 6 5 5 5 5 5 5 5 4 4 4 4 4 3 3 3 3 3 3 3 3 2 2
6 6 6 6 6 6 5 5 5 5 5 5 5 5 4 4 4 4 4 4 4 4 4 3 3 2 2 2 2 2 2 2
6 6 5 5 5 5 5 5 5 5 5 5 5 5 4 4 4 4 4 4 3 3 3 3 3 2 2 2 1 1 2 2
5 5 5 5 5 5 5 5 5 4 4 5 4 4 4 4 3 3 3 3 3 3 3 3 2 2 2 2 2 1 1 1
4 4 5 5 5 4 5 4 4 4 4 4 3 3 3 3 2 2 2 2 2 2 1 1 1 1 2 2 1 2 1 1
4 4 4 4 4 4 5 4 4 4 3 3 3 3 3 2 2 1 1 1 1 1 1 1 1 1 1 1 1 1 1 1
4 4 4 4 5 3 4 3 3 2 2 2 2 2 2 2 1 1 1 1 1 1 0 1 1 1 1 1 1 1 1 1
4 4 4 4 4 3 3 3 2 2 2 2 2 2 2 1 1 0 0 0 0 0 -0 -0 0 0 1 1 1 0 1 1
4 4 4 4 3 3 3 3 2 2 2 2 2 1 1 1 0 0 0 -0 -1 -1 -1 -1 -0 0 1 1 1 1 0 0
4 4 4 3 3 3 3 2 2 2 1 1 -0 -1 -1 -1 -1 -1 -2 -2 -2 -1 -1 -1 -1 -1 -0 -0 -0 -0 -0 -1
4 3 3 3 3 2 2 1 1 1 1 1 0 -0 -1 -1 -2 -2 -2 -2 -1 -1 -1 -1 -1 -1 -1 -1 -1 -1 -1 -1
3 3 3 3 2 2 1 1 1 1 0 -0 -1 -1 -2 -3 -2 -3 -3 -2 -2 -2 -2 -2 -2 -1 -1 -1 -1 -2 -2 -2
3 3 3 2 1 1 1 1 0 -1 -1 -1 -1 -2 -3 -4 -3 -3 -3 -3 -3 -3 -3 -3 -3 -3 -3 -3 -2 -2 -2 -3
3 3 2 2 2 2 1 1 -0 -1 -1 -2 -2 -3 -3 -2 -2 -3 -3 -4 -4 -4 -4 -5 -5 -4 -4 -4 -4 -4 -3 -3
3 3 2 2 1 1 0 -0 -1 -1 -1 -1 -2 -2 -2 -3 -3 -3 -4 -4 -5 -5 -5 -5 -5 -5 -6 -6 -7 -7 -7 -5
2 2 1 1 1 1 0 -0 -1 -1 -2 -2 -3 -3 -3 -4 -4 -4 -5 -5 -5 -5 -6 -6 -6 -7 -7 -7 -8 -9 -10 -10
2 1 1 1 0 -0 -1 -1 -2 -3 -3 -4 -4 -4 -5 -5 -5 -6 -6 -6 -6 -6 -7 -7 -7 -8 -9 -10 -10 -11 -12 -12
1 0 -0 -1 -2 -2 -2 -2 -3 -4 -5 -5 -6 -6 -6 -7 -6 -7 -7 -7 -7 -8 -8 -9 -10 -11 -12 -12 -12 -12 -12 -12
-1 -2 -2 -2 -2 -2 -2 -3 -4 -5 -5 -6 -6 -6 -7 -7 -8 -8 -9 -9 -10 -10 -10 -11 -11 -12 -13 -13 -13 -13 -13 -12

GFSFLT2_700_temp_027.txt.gz
Temp
6 6 6 6 6 6 6 6 6 6 5 5 5 5 4 4 4 4 4 4 4 4 3 3 3 3 3 2 3 3 3 3
6 6 6 6 6 6 6 6 6 5 5 5 4 4 4 4 4 4 4 4 4 4 3 3 2 2 2 2 2 2 2 2
6 6 6 6 6 6 6 5 5 5 5 5 5 4 4 4 4 4 4 4 3 3 3 3 2 2 2 1 1 1 1 1
5 5 6 6 5 5 5 5 5 5 5 4 4 4 4 4 3 3 3 3 3 2 3 3 2 2 2 2 1 1 1 1
5 5 5 5 5 5 5 5 4 4 4 4 4 4 3 3 3 2 2 2 2 2 2 2 2 1 1 1 1 1 1 0
5 5 5 5 5 5 5 5 4 4 4 4 3 3 3 3 2 2 1 1 1 1 1 1 1 1 1 1 1 1 1 1
5 4 4 4 4 4 4 4 4 4 3 3 3 2 2 2 1 1 1 1 1 0 0 0 0 0 0 0 1 1 1 1
5 4 5 5 4 4 4 4 3 3 2 2 2 2 2 2 1 0 0 1 0 -0 -0 -0 0 -0 0 0 0 0 1 0
4 4 4 4 4 4 3 3 3 3 2 2 2 2 2 2 2 1 1 0 -0 -0 -0 -0 -0 -0 -0 0 0 0 0 0
4 3 3 3 3 3 3 3 2 2 2 2 2 2 1 1 1 0 -0 -1 -1 -1 -1 -1 -1 -1 -0 -0 -0 0 0 0
3 3 3 2 3 3 3 3 2 2 1 1 1 0 -0 -0 -1 -1 -2 -2 -2 -2 -1 -1 -1 -1 -1 -1 -1 -1 -1 -1
3 3 3 2 2 2 2 2 2 1 1 0 -1 -1 -1 -2 -2 -2 -2 -3 -2 -2 -2 -2 -2 -2 -2 -2 -2 -2 -2 -2
3 2 3 2 2 1 2 1 1 1 -0 -1 -2 -2 -2 -3 -3 -3 -3 -3 -3 -3 -3 -3 -3 -3 -3 -3 -3 -3 -3 -3
4 3 2 2 1 1 1 0 -0 -1 -2 -2 -2 -2 -3 -3 -3 -3 -3 -3 -3 -3 -4 -4 -4 -4 -4 -4 -4 -3 -4 -4
3 2 1 1 0 -0 -0 -1 -1 -2 -2 -3 -2 -2 -2 -2 -2 -3 -3 -4 -4 -5 -5 -5 -5 -5 -5 -6 -6 -5 -5 -5
2 1 1 1 0 -0 -1 -1 -1 -2 -2 -2 -1 -1 -2 -3 -3 -4 -4 -5 -5 -6 -6 -6 -6 -7 -7 -7 -8 -8 -8 -7
2 1 1 1 1 1 0 -0 -1 -1 -1 -2 -2 -3 -4 -4 -5 -5 -5 -6 -6 -6 -6 -7 -7 -8 -8 -8 -9 -9 -10 -10
2 1 1 0 -0 -0 -1 -2 -2 -2 -2 -3 -4 -4 -5 -5 -5 -6 -7 -7 -8 -8 -8 -8 -9 -9 -10 -10 -11 -11 -11 -12
1 -0 -1 -1 -2 -2 -2 -2 -3 -3 -4 -4 -5 -5 -6 -7 -8 -8 -8 -9 -9 -10 -10 -10 -10 -10 -11 -12 -12 -13 -14 -13
-1 -1 -1 -2 -2 -2 -2 -3 -3 -3 -4 -5 -6 -7 -7 -8 -9 -10 -10 -10 -11 -12 -11 -11 -11 -12 -12 -13 -13 -14 -14 -15

GFSFLT2_700_temp_030.txt.gz
Temp
6 6 6 6 6 6 6 6 5 5 5 5 5 4 4 4 4 4 4 3 3 3 3 3 2 2 2 2 2 2 2 2
6 6 6 6 6 6 6 5 5 5 5 4 4 4 4 4 4 3 3 3 3 3 2 2 2 1 1 1 1 1 1 1
6 6 6 6 6 5 5 5 5 4 4 4 4 4 4 4 3 3 3 3 2 2 2 2 2 1 1 1 1 1 1 1
6 6 6 5 5 5 5 5 4 4 4 4 4 4 4 3 3 3 3 2 2 1 1 1 1 1 1 1 1 1 0 0
5 5 5 5 5 4 4 4 4 4 4 4 4 4 3 3 2 2 2 2 1 1 1 1 0 1 1 1 1 1 1 1
4 4 4 4 4 4 4 4 4 4 4 3 3 3 3 3 2 1 1 1 1 1 0 0 -0 0 0 0 0 0 1 1
4 4 4 4 4 4 4 4 4 4 3 3 3 3 3 2 2 1 1 0 0 0 -0 -0 -0 -1 -0 -0 -0 -0 0 1
3 3 3 3 3 2 3 3 3 3 3 3 3 2 2 2 1 1 0 0 -0 -0 -1 -1 -0 -0 -1 -1 -0 -0 -0 0
3 3 3 3 3 3 2 2 2 2 2 2 2 2 1 1 0 -0 -1 -1 -1 -1 -1 -1 -1 -1 -1 -1 -1 -1 -1 -1
3 3 3 3 2 2 1 2 2 2 2 2 1 1 1 0 -1 -1 -1 -1 -2 -2 -2 -2 -2 -2 -1 -1 -1 -1 -1 -1
3 3 2 2 1 1 1 1 1 1 1 1 0 -0 -1 -2 -2 -2 -2 -2 -2 -2 -2 -2 -2 -2 -2 -2 -2 -2 -2 -2
3 3 1 2 1 0 1 1 1 1 0 -0 -1 -2 -2 -2 -2 -3 -2 -2 -2 -2 -2 -3 -3 -2 -2 -2 -3 -3 -3 -3
3 2 1 2 1 1 0 0 0 -0 -0 -1 -2 -3 -3 -2 -2 -2 -2 -2 -2 -2 -3 -3 -3 -3 -3 -3 -3 -4 -4 -4
1 2 2 1 1 1 1 1 0 -1 -1 -2 -2 -2 -2 -2 -2 -2 -2 -2 -2 -3 -3 -4 -4 -4 -4 -4 -5 -5 -5 -5
3 2 1 1 1 0 -0 -0 -1 -1 -1 -2 -2 -2 -2 -2 -1 -2 -2 -3 -4 -4 -4 -5 -5 -6 -6 -7 -7 -7 -7 -7
2 1 1 1 1 0 0 -0 -1 -1 -1 -1 -1 -2 -2 -2 -3 -4 -5 -5 -5 -6 -6 -6 -7 -7 -8 -8 -9 -9 -9 -8
1 1 1 1 0 -0 -0 -1 -2 -2 -2 -2 -3 -3 -4 -5 -5 -5 -5 -6 -6 -6 -7 -8 -9 -9 -9 -10 -9 -10 -10 -10
-0 0 0 0 -1 -1 -1 -2 -2 -3 -3 -3 -4 -4 -5 -5 -5 -6 -7 -7 -8 -9 -10 -10 -10 -11 -10 -11 -11 -11 -11 -12
0 -0 -1 -1 -1 -2 -2 -3 -3 -3 -4 -4 -5 -5 -5 -6 -7 -7 -8 -8 -9 -10 -11 -11 -11 -12 -12 -11 -12 -12 -12 -13
-0 -1 -1 -2 -2 -2 -2 -3 -3 -4 -4 -5 -5 -5 -6 -6 -7 -9 -10 -11 -11 -11 -12 -12 -12 -13 -12 -13 -12 -12 -13 -14

GFSFLT2_700_temp_036.txt.gz
Temp
5 5 6 5 5 5 5 5 4 4 5 4 4 4 4 4 3 3 3 3 3 3 2 2 2 2 2 2 1 2 1 1
5 5 5 5 5 5 5 4 4 4 4 4 4 3 3 3 3 3 3 3 2 2 2 2 1 1 1 1 1 1 1 1
5 5 5 5 5 5 4 4 4 4 4 3 3 3 3 3 3 3 3 2 2 2 2 1 1 1 1 1 1 1 1 1
5 5 5 4 4 4 4 4 3 3 3 3 3 3 2 3 3 2 2 2 2 1 1 1 1 1 1 1 1 1 1 1
4 4 4 4 4 4 3 3 3 3 3 3 3 3 2 2 2 1 1 1 1 1 0 1 0 1 1 1 1 1 1 1
4 4 4 4 4 3 3 3 3 3 2 2 2 2 2 2 1 1 1 0 0 0 0 0 0 0 0 1 1 1 1 1
4 4 4 3 3 3 3 3 3 2 2 2 1 1 1 1 1 0 0 0 0 -0 -0 -0 -0 -0 -0 0 0 0 1 1
3 3 3 3 3 3 3 2 2 1 1 0 0 1 1 0 0 0 0 0 0 -0 -1 -1 -1 -1 -1 -0 -0 -0 -0 0
3 3 3 3 3 3 2 1 1 2 1 1 1 1 0 0 0 0 0 0 -0 -1 -1 -1 -1 -1 -1 -1 -1 -1 -1 -1
3 3 3 3 2 2 1 0 1 1 1 1 1 0 0 0 0 0 -0 -1 -1 -2 -2 -2 -2 -2 -2 -1 -1 -1 -1 -1
3 3 3 3 2 1 1 1 2 1 1 0 0 -0 0 0 -0 -1 -2 -2 -2 -2 -2 -2 -2 -2 -2 -1 -1 -1 -1 -1
3 3 2 2 2 0 0 -0 1 0 0 0 -0 -0 -0 -1 -1 -2 -2 -2 -2 -2 -2 -2 -2 -1 -1 -1 -1 -1 -1 -2
3 2 2 1 0 1 0 0 1 1 0 -0 -1 -1 -1 -2 -2 -2 -2 -2 -2 -2 -2 -2 -2 -2 -2 -3 -3 -3 -3 -3
3 3 3 2 1 1 1 0 -0 -1 -1 -1 -1 -1 -1 -2 -2 -2 -3 -3 -3 -3 -3 -3 -4 -4 -4 -4 -5 -6 -8 -9
3 2 2 1 1 0 -0 -1 -1 -1 -2 -2 -2 -2 -2 -2 -3 -3 -3 -3 -4 -4 -4 -5 -5 -6 -6 -7 -7 -8 -9 -9
2 1 1 1 0 -1 -1 -2 -2 -2 -2 -2 -2 -2 -3 -3 -3 -4 -4 -5 -5 -5 -6 -6 -6 -7 -8 -9 -9 -10 -11 -12
1 2 1 1 0 -1 -1 -2 -2 -2 -2 -2 -3 -3 -4 -4 -4 -5 -5 -5 -6 -6 -7 -8 -8 -9 -11 -12 -12 -12 -13 -14
2 1 1 0 -0 -1 -1 -2 -2 -2 -3 -3 -3 -4 -4 -5 -4 -5 -5 -6 -7 -8 -9 -10 -11 -12 -12 -13 -13 -13 -14 -14
1 1 0 -1 -1 -1 -1 -2 -2 -3 -3 -3 -4 -4 -5 -5 -6 -6 -7 -8 -9 -10 -11 -12 -12 -12 -12 -13 -14 -13 -14 -14
1 0 -0 -1 -1 -2 -2 -2 -3 -3 -3 -4 -4 -5 -5 -6 -6 -7 -8 -9 -9 -9 -11 -12 -12 -12 -13 -13 -14 -14 -14 -14